Location: Asar Burnu
(36.5203°N, 30.5523°E)
Time: 17:58:26
(UTC+00:00)

Cosmos 1140 Rocket - Pass Details

Date: 04 August 2024
Orbit: 741 x 765 km, 74.1° (Epoch: 19 September)

Event Time Altitude Azimuth Distance (km) Brightness Sun altitude
Rises 17:28:49 0° 348° (NNW) 3,200 7.3 -6.0°
Reaches altitude 10° 17:31:16 10° 354° (N) 2,276 6.4 -6.5°
Maximum altitude 17:36:14 47° 69° (ENE) 988 3.8 -7.3°
Drops below altitude 10° 17:41:12 10° 143° (SE) 2,278 5.4 -8.2°
Enters shadow 17:41:53 - 145° (SE) 2,528 5.6 -8.4°
